Regional Weather Roundup
Issued by NWS

Home | Current Version | Previous Version | Text Only | Print | Product List | Glossary Off
Versions: 1 2 3 4 5 6 7 8 9 10 11 12 13 14 15 16 17 18 19 20 21 22 23 24 25 26 27 28 29 30 31 32 33 34 35 36 37 38 39 40 41 42 43 44 45 46 47 48 49 50

000
ASUS43 KLOT 260008
RWRIL

ILLINOIS REGIONAL WEATHER ROUNDUP
NATIONAL WEATHER SERVICE CHICAGO/ROMEOVILLE IL
700 PM CDT TUE APR 25 2017

NOTE: "FAIR" INDICATES FEW OR NO CLOUDS BELOW 12,000 FEET WITH NO
SIGNIFICANT WEATHER AND/OR OBSTRUCTIONS TO VISIBILITY.

* THESE STATIONS ARE NOT UNDER NWS QUALITY CONTROL. THEY ALSO MAY NOT
  REPORT WEATHER SUCH AS PRECIPITATION OR FOG.

ILZ001-002-007-009-015-016-024-260100-
NORTHWEST ILLINOIS

CITY           SKY/WX    TMP DP  RH WIND       PRES   REMARKS
MOLINE         MOCLDY    75  45  34 S9        29.45R
6HR MIN TEMP:  73; 6HR MAX TEMP:  80;

STERLING*      PTCLDY    77  46  33 SE7       29.48R
SAVANNA*       CLOUDY    76  42  29 S9        29.47R
$$

ILZ003-004-008-010-011-017-018-260100-
NORTH CENTRAL ILLINOIS

CITY           SKY/WX    TMP DP  RH WIND       PRES   REMARKS
ROCKFORD       CLOUDY    77  47  34 S15       29.52S
6HR MIN TEMP:  72; 6HR MAX TEMP:  79;

FREEPORT*      CLOUDY    73  47  39 SE10      29.51S
ROCHELLE*      PTCLDY    76  46  35 S16       29.51R
DE KALB*       CLEAR     74  50  42 SE15G21   29.52S
PERU*          MOCLDY    76  45  32 S17       29.50R
$$

ILZ005-006-012>014-019>023-260100-
NORTHEAST ILLINOIS

CITY           SKY/WX    TMP DP  RH WIND       PRES   REMARKS
CHICAGO-OHARE  CLOUDY    76  47  35 SE18G26   29.53R
6HR MIN TEMP:  74; 6HR MAX TEMP:  79;

CHICAGO-MIDWAY MOCLDY    78  50  37 SE15G23   29.54R
6HR MIN TEMP:  76; 6HR MAX TEMP:  80;

AURORA         CLEAR     76  50  40 SE17      29.52R
6HR MIN TEMP:  74; 6HR MAX TEMP:  80;

LANSING*       CLOUDY    75  55  49 S13G18    29.55S
JOLIET*        CLEAR     77  51  39 S9G18     29.53R
WAUKEGAN       PTCLDY    60  49  66 SE10      29.55F
6HR MIN TEMP:  60; 6HR MAX TEMP:  68;

DUPAGE AIRPORT CLEAR     76  50  40 SE10      29.52S
6HR MIN TEMP:  72; 6HR MAX TEMP:  78; 6HR PCP: TRACE;

KANKAKEE*      PTCLDY    76  50  40 S17G24    29.54S
WHEELING       PTCLDY    73  50  44 SE8       29.55S
6HR MIN TEMP:  72; 6HR MAX TEMP:  76;

MORRIS*        CLEAR     76  49  38 SE15G21   29.51R
ROMEOVILLE*    CLEAR     74  55  50 S14       29.54R
NORTHERLY ISL    N/A     63  52  67 SE2         N/A
$$

LMZ740>746-260100-
SOUTHERN LAKE MICHIGAN

STATION/POSITION SKY/WX   TEMP    WIND        PRES    VSBY  WAVE
                          AIR SEA DIR/SP/G                  HT/PER
                          (F)     (DEG/KT/KT) (MB)    (MI)  (FT/S)
SOUTHERN BUOY              49 42   70/ 10/ 10 1002.5          1
HARRISON CRIB              64     130/ 19/ 21   N/A
BURNHAM HARBOR             62     120/  5/  7   N/A
CALUMET HARBOR             76     140/ 11/ 15 1000.1R
BURNS HARBOR               76     140/ 13/ 19 1001.4F
MICHIGAN CITY              74     120/ 15/ 20   N/A
ST. JOSEPH                 64 50  150/ 10/ 12 1002.1          1
$$

ILZ025>027-034>036-040-047-049-050-058-095>099-260100-
WEST-CENTRAL ILLINOIS

CITY           SKY/WX    TMP DP  RH WIND       PRES   REMARKS
QUINCY         CLOUDY    79  47  32 S10       29.42R
GALESBURG*     CLOUDY    75  48  37 S9        29.46R
MACOMB*        CLOUDY    76  45  32 S15       29.47S
JACKSONVILLE*  PTCLDY    75  47  36 S10G20    29.47R
PITTSFIELD*    CLOUDY    77  51  39 SE13G18   29.46R
$$

ILZ028>032-037-038-041>044-048-051>054-059>061-260100-
CENTRAL ILLINOIS

CITY           SKY/WX    TMP DP  RH WIND       PRES   REMARKS
PONTIAC        PTCLDY    78  47  34 S17       29.52R
BLOOMINGTON    CLOUDY    74  52  46 S23       29.51R
DECATUR        PTCLDY    74  55  51 S20G33    29.51R
PEORIA         PTCLDY    77  49  37 S18       29.47S
6HR MIN TEMP:  74; 6HR MAX TEMP:  80;

LACON*         PTCLDY    75  49  40 S12       29.48S
LINCOLN*       CLOUDY    77  53  43 S18G25    29.49S
SPRINGFIELD    CLOUDY    77  48  35 S16G32    29.49R
6HR MIN TEMP:  75; 6HR MAX TEMP:  83;

TAYLORVILLE    PTCLDY    74  53  46 S16G22    29.50R
6HR MIN TEMP:  74; 6HR MAX TEMP:  80;

$$

ILZ033-039-045-046-055>057-062-063-260100-
EAST-CENTRAL ILLINOIS

CITY           SKY/WX    TMP DP  RH WIND       PRES   REMARKS
CHAMPAIGN      PTCLDY    75  50  41 SE24      29.53S
RANTOUL*       PTCLDY    77  53  42 SE18      29.54S
MATTOON        PTCLDY    73  55  53 S15G26    29.53F
PARIS*         PTCLDY    74  55  51 SE17      29.57S
$$

ILZ079-100>102-260100-
SOUTHWEST ILLINOIS

CITY           SKY/WX    TMP DP  RH WIND       PRES   REMARKS
ALTON          MOCLDY    73  46  38 S12G26    29.50R
BELLEVILLE     CLOUDY    75  54  47 E9G17     29.49S
CAHOKIA*       PTCLDY    77  47  34 S12G25    29.48S
SPARTA*        PTCLDY    74  51  44 S13G23    29.52S
$$

ILZ064>066-069>071-074>076-080>082-084>086-088>090-092>094-260100-
SOUTH-CENTRAL ILLINOIS

CITY           SKY/WX    TMP DP  RH WIND       PRES   REMARKS
CARBONDALE     CLEAR     74  53  48 S14G24    29.54F
6HR MIN TEMP:  74; 6HR MAX TEMP:  78;

CAIRO*         CLEAR     76  54  45 S10       29.57F
EFFINGHAM*     PTCLDY    74  57  55 SE14G24   29.55F
MT. VERNON     CLOUDY    74  55  51 SE10      29.55S
CENTRALIA*     CLOUDY    76  55  47 SE14G20   29.52R
SALEM*         CLOUDY    76  53  44 SE9G18    29.53S
METROPOLIS*    CLEAR     77  53  44 S6        29.59S
$$

ILZ067-068-072-073-078-083-087-091-260100-
SOUTHEAST ILLINOIS

CITY           SKY/WX    TMP DP  RH WIND       PRES   REMARKS
LAWRENCEVILLE  CLEAR     75  55  49 S21       29.59F
FLORA*         CLEAR     75  56  52 SE14G23   29.56S
FAIRFIELD*     MOCLDY    74  56  52 SE9       29.56S
HARRISBURG*    CLEAR     74  55  52 SE18      29.58S
ROBINSON*      CLEAR     73  55  54 S14G23    29.59F
CARMI*         PTCLDY    74  57  56 SE17      29.58F
$$

ABBREVIATIONS USED IN REMARKS
   TC - TEMPERATURE IN CELSIUS
  WCI - WIND CHILL INDEX
   HX - HEAT INDEX
  VSB - VISIBILITY
$$





USA.gov is the U.S. government's official web portal to all federal, state and local government web resources and services.